Weather History for KAVL - February, 2013

Change the Weather History Date:

Wednesday, February 27, 2013

  Actual Average Record
Temperature  
Mean Temperature 44 °F 43 °F  
Max Temperature 57 °F 54 °F 78 °F (1996)
Min Temperature 31 °F 32 °F 6 °F (1934)
Degree Days  
Heating Degree Days 21 22  
Month to date heating degree days 667 668  
Since 1 July heating degree days 2914 3195  
Cooling Degree Days 0 0  
Month to date cooling degree days 0 0  
Year to date cooling degree days 0 0  
Moisture  
Dew Point 31 °F    
Average Humidity 66    
Maximum Humidity 100    
Minimum Humidity 32    
Precipitation  
Precipitation T in 0.13 in 1.64 in (1899)
Month to date precipitation 3.56 3.63  
Year to date precipitation 12.14 7.30  
Snow  
Snow 0.00 in 0.10 in 7.50 in (1924)
Month to date snowfall 0.2 2.1  
Since 1 July snowfall 0.2 7.2  
Snow Depth 0.00 in    
Sea Level Pressure  
Sea Level Pressure 29.70 in    
Wind  
Wind Speed 7 mph (NW)    
Max Wind Speed 15 mph    
Max Gust Speed 20 mph    
Visibility 8 miles    
Events Fog    
T = Trace of Precipitation, MM = Missing Value Source: NWS Daily Summary

Daily Weather History Graph

Daily Weather History Graph

Search for Another Location

Airport or City:

Trip Planner

Search our weather history database for the weather conditions in past years. The results will help you decide how hot, cold, wet, or windy it might be!

Date:

Astronomy

Feb. 27, 2013 Rise Set
Actual Time 7:02 AM EST 6:23 PM EST
Civil Twilight 6:36 AM EST 6:49 PM EST
Nautical Twilight 6:07 AM EST 7:19 PM EST
Astronomical Twilight 5:37 AM EST 7:48 PM EST
Moon 8:36 PM EST (2/27) 7:42 AM EST (2/27)
Length of Visible Light 12h 13m
Length of Day
11h 21m
Waning Gibbous, 96% of the Moon is Illuminated
Feb 27
Waning Gibbous
Mar 4
Last Quarter
Mar 11
New
Mar 19
First Quarter
Mar 27
Full

Hourly Weather History & Observations

Time (EST) Temp. Windchill Dew Point Humidity Pressure Visibility Wind Dir Wind Speed Gust Speed Precip Events Conditions
12:12 AM 33.8 °F 28.6 °F 33.8 °F 100% 29.63 in 0.5 mi NW 5.8 mph - N/A Fog Fog
12:37 AM 33.8 °F - 33.8 °F 100% 29.64 in 0.2 mi Calm Calm - N/A Fog Fog
12:54 AM 33.1 °F 30.0 °F 33.1 °F 100% 29.66 in 0.2 mi South 3.5 mph - N/A Fog Fog
1:39 AM 32.0 °F - 32.0 °F 100% 29.64 in 0.2 mi Calm Calm - N/A Fog Fog
1:50 AM 35.6 °F 29.2 °F 30.2 °F 81% 29.64 in 1.0 mi NW 8.1 mph - N/A   Mist
1:51 AM 35.6 °F 29.9 °F 30.2 °F 81% 29.64 in 1.5 mi NW 6.9 mph - N/A   Mostly Cloudy
1:54 AM 35.1 °F 30.1 °F 30.9 °F 85% 29.65 in 7.0 mi NW 5.8 mph - N/A   Scattered Clouds
2:23 AM 30.2 °F - 30.2 °F 100% 29.65 in 2.0 mi Calm Calm - N/A   Mostly Cloudy
2:32 AM 32.0 °F - 30.2 °F 93% 29.65 in 7.0 mi Calm Calm - N/A   Mostly Cloudy
2:54 AM 37.0 °F 34.5 °F 30.9 °F 79% 29.67 in 10.0 mi NNW 3.5 mph - N/A   Mostly Cloudy
3:54 AM 37.9 °F 32.1 °F 32.0 °F 79% 29.67 in 10.0 mi NNW 8.1 mph - N/A   Mostly Cloudy
4:54 AM 37.0 °F 31.6 °F 32.0 °F 82% 29.68 in 10.0 mi North 6.9 mph - N/A   Overcast
5:54 AM 36.0 °F 29.6 °F 30.0 °F 79% 29.71 in 10.0 mi NNW 8.1 mph - N/A   Mostly Cloudy
6:54 AM 36.0 °F 29.0 °F 28.9 °F 76% 29.72 in 10.0 mi North 9.2 mph - N/A   Clear
7:54 AM 37.0 °F 29.8 °F 30.0 °F 76% 29.75 in 10.0 mi North 10.4 mph - N/A   Scattered Clouds
8:54 AM 39.9 °F 35.1 °F 28.9 °F 65% 29.76 in 10.0 mi North 6.9 mph - N/A   Clear
9:54 AM 42.1 °F 36.1 °F 28.9 °F 60% 29.78 in 10.0 mi North 10.4 mph - N/A   Clear
10:54 AM 45.0 °F 39.7 °F 30.0 °F 56% 29.78 in 10.0 mi NNW 10.4 mph - N/A   Clear
11:54 AM 46.4 °F 44.3 °F 30.2 °F 53% 29.77 in 10.0 mi NNW 4.6 mph - N/A   Clear
12:54 PM 50.0 °F - 33.1 °F 52% 29.75 in 10.0 mi Calm Calm - N/A   Clear
1:54 PM 53.1 °F - 35.1 °F 50% 29.71 in 10.0 mi SSE 8.1 mph - N/A   Clear
2:54 PM 54.0 °F - 34.0 °F 47% 29.69 in 10.0 mi Calm Calm - N/A   Partly Cloudy
3:54 PM 55.9 °F - 34.0 °F 44% 29.68 in 10.0 mi South 8.1 mph - N/A   Clear
4:54 PM 55.9 °F - 30.9 °F 39% 29.68 in 10.0 mi WSW 10.4 mph 19.6 mph N/A   Scattered Clouds
5:54 PM 53.1 °F - 25.0 °F 34% 29.70 in 10.0 mi Calm Calm - N/A   Clear
6:54 PM 50.0 °F - 21.0 °F 32% 29.73 in 10.0 mi West 5.8 mph - N/A   Clear
7:54 PM 44.1 °F 42.5 °F 30.9 °F 60% 29.75 in 10.0 mi West 3.5 mph - N/A   Mostly Cloudy
8:54 PM 44.6 °F 38.4 °F 30.2 °F 57% 29.76 in 10.0 mi NNW 12.7 mph - N/A   Overcast
9:54 PM 41.0 °F 33.5 °F 34.0 °F 76% 29.76 in 10.0 mi North 13.8 mph 18.4 mph 0.00 in   Overcast
10:54 PM 37.9 °F 31.5 °F 34.0 °F 86% 29.76 in 10.0 mi NNW 9.2 mph - 0.00 in   Mostly Cloudy
11:54 PM 37.9 °F 30.0 °F 33.1 °F 83% 29.74 in 10.0 mi NW 12.7 mph - N/A   Overcast